Location: Appletree Creek
(38.7363°N, 122.6833°W)
Time: 09:48:59
(UTC+00:00)

Cosmos 1777 Rocket - Pass Details

Date: 18 September 2020
Orbit: 759 x 775 km, 74.0° (Epoch: 22 October)

Event Time Altitude Azimuth Distance (km) Brightness Sun altitude
Rises 12:03:18 0° 336° (NNW) 3,236 7.2 -22.1°
Reaches altitude 10° 12:05:44 10° 331° (NNW) 2,304 6.4 -21.7°
Maximum altitude 12:10:47 52° 256° (WSW) 943 4.0 -20.8°
Drops below altitude 10° 12:15:48 10° 181° (S) 2,282 6.3 -19.9°
Sets 12:18:11 0° 177° (S) 3,202 7.1 -19.4°
